Location: Cudham
(51.3000°N, 0.0667°E)
Time: 16:19:53
(UTC+00:00)

USA 229 DEB - Pass Details

Date: 24 April 2026
Orbit: 844 x 1364 km, 63.4° (Epoch: 10 January)

Event Time Altitude Azimuth Distance (km) Brightness Sun altitude
Rises 02:04:26 0° 305° (NW) 4,104 6.8 -20.2°
Reaches altitude 10° 02:09:26 10° 277° (W) 3,249 6.0 -19.8°
Enters shadow 02:10:59 12° 265° (W) 3,160 5.8 -19.7°
